Location: Boitzum
(52.1496°N, 9.6943°E)
Time: 21:06:45
(UTC+00:00)

IRS-1C - Pass Details

Date: 13 January 2026
Orbit: 813 x 814 km, 99.0° (Epoch: 16 February)

Event Time Altitude Azimuth Distance (km) Brightness Sun altitude
Rises 06:15:54 0° 16° (NNE) 3,352 7.3 -10.1°
Reaches altitude 10° 06:18:16 10° 18° (NNE) 2,415 6.5 -9.7°
Maximum altitude 06:23:37 81° 106° (ESE) 830 4.3 -9.0°
Drops below altitude 10° 06:28:56 10° 194° (SSW) 2,397 6.7 -8.2°
Sets 06:31:16 0° 195° (SSW) 3,325 7.4 -7.9°
